www.pogodaiklimat.ru

Погода и климат >> Архив погоды >> Россия >> Якутия >> Сунтар


АРХИВ ПОГОДЫ в Сунтаре

Время (UTC), дата Ветер
(напр.,м/с)
 
Видим.   Явления Облачность Т
(С)
Тd
(С)
f
(%)
Тe
(С)
Тes
(С)
Комфортность P
(гПа)
Po
(гПа)
Тmin
(С)
Tmax
(С)
R
(мм)
R24
(мм)
S
(см)
09 19.06 З 3 50 км 10/3 1000 м
[Sc Ac trans Ci fib]
+25.0 +13.4 49 +27 +29 жарко 1009.6 993.9
12 19.06 СЗ 2 50 км 10/0
[Ac trans Ci fib]
+22.3 +13.7 58 +25 +26 комфорт 1010.0 994.2 +26.0
15 19.06 СЗ 1 50 км 10/5 600 м
[Cb cap Ac trans]
+18.9 +13.7 72 +21 +21 комфорт 1010.5 994.5
18 19.06 СЗ 1 50 км 10/5 600 м
[Cb cap Ac trans]
+17.3 +12.8 75 +18 +18 1011.0 994.9
21 19.06 С 1 50 км 10/3 1000 м
[Sc Ac trans]
+17.0 +12.1 73 +18 +18 1011.2 995.1
00 20.06 СЗ 2 50 км 10/3 1000 м
[Sc Ac trans Ci fib]
+23.0 +11.9 50 +26 +28 жарко 1011.4 995.6 +16.2
03 20.06 СЗ 2 50 км 10/5 600 м
[Cb cap Ac trans]
+21.0 +12.1 57 +24 +27 комфорт 1011.9 996.0
06 20.06 СЗ 3 50 км 9/4 600 м
[Cb cap Ac trans]
+22.2 +11.3 50 +24 +27 комфорт 1011.3 995.4
09 20.06 З 2 50 км 8/3 1000 м
[Sc Ci fib]
+24.6 +10.7 42 +26 +29 жарко 1010.3 994.6
12 20.06 З 2 50 км 6/3 1000 м
[Sc Ci fib]
+22.4 +12.6 54 +25 +25 комфорт 1010.9 995.1 +25.4
15 20.06 ЮЗ 1 50 км 8/0
[Ac trans]
+18.2 +13.8 75 +20 +20 1011.5 995.5
18 20.06 Ю 1 50 км 6/0
[Ac trans]
+16.4 +14.3 87 +17 +17 1011.6 995.5
21 20.06 Ю 1 50 км 6/0
[Ac trans]
+16.0 +14.2 89 +17 +17 1012.2 996.0
00 21.06 Ю 2 50 км 8/0
[Ac trans Ci fib]
+20.4 +13.6 65 +23 +28 комфорт 1011.4 995.5 +15.0
03 21.06 Ю 3 50 км 6/3 1000 м
[Cu med, cong Ci fib]
+26.3 +13.0 44 +28 +35 жарко 1010.3 994.6
06 21.06 З 3 50 км 6/3 1000 м
[Cu med, cong Ci fib]
+28.8 +7.9 27 +28 +35 жарко 1009.1 993.6
09 21.06 СЗ 3 50 км 8/5 1000 м
[Cb cap Ci fib]
+26.1 +7.8 31 +26 +28 жарко 1008.9 993.2
12 21.06 З 3 50 км 10/4 1000 м
[Cb cap Ac trans Ci fib]
+26.2 +11.5 40 +27 +28 жарко 1009.1 993.4 +30.1
15 21.06 ЮЗ 1 50 км 10/3 1000 м
[Cb cap Ac trans Ci fib]
+20.8 +11.2 54 +24 +24 комфорт 1010.0 994.1
18 21.06 З 1 50 км 10/3 1000 м
[Sc Ac trans Ci fib]
+18.3 +11.8 66 +20 +20 1010.6 994.5
21 21.06 СЗ 3 50 км 10/4 1000 м
[Cb cap Ac trans Ci fib]
+17.6 +12.4 72 +18 +18 1011.0 994.9
00 22.06 С 2 50 км {ливн. осадки} 4/4 1000 м
[Cb cap]
+19.5 +13.2 67 +22 +26 комфорт 1011.1 995.1 +16.4 0.3
03 22.06 штиль 0 50 км 6/3 1000 м
[Cu med, cong Ci fib]
+23.4 +11.1 46 +26 +37 жарко 1010.7 994.9
06 22.06 ЮЗ 4 50 км 8/4 600 м
[Cb cap Ci fib]
+21.4 +12.2 56 +24 +28 комфорт 1010.1 994.2
09 22.06 З 2 50 км 10/3 600 м
[Cb cap Ac trans]
+21.8 +14.3 62 +25 +26 комфорт 1009.6 993.7
12 22.06 СЗ 3 50 км 10/5 1000 м
[Sc Ac trans]
+21.6 +9.8 47 +23 +23 комфорт 1010.1 994.2 +23.9
15 22.06 З 3 50 км 10/5 1000 м
[Sc Ac trans]
+18.6 +10.4 59 +19 +19 1010.5 994.4
18 22.06 С 1 50 км {ливн. осадки} 10/6 600 м
[Cb cap Ac trans]
+16.8 +8.2 57 +18 +18 1011.1 995.0
21 22.06 СЗ 1 50 км 10/5 600 м
[Cb cap Ac trans]
+15.6 +8.8 64 +16 +17 1012.2 996.0
00 23.06 СЗ 3 50 км 10/3 1000 м
[Sc Ci fib]
+17.0 +9.4 61 +17 +20 1012.5 996.4 +15.4 0.1
03 23.06 С 4 50 км 3/3 1000 м
[Cu hum]
+19.5 +4.1 36 +20 +26 1011.6 995.6
06 23.06 С 4 50 км 3/3 1000 м
[Sc]
+22.2 +1.3 25 +22 +27 комфорт 1010.3 994.4
09 23.06 СЗ 3 50 км 1/1 1000 м
[Sc]
+22.4 +0.2 23 +22 +25 комфорт 1009.3 993.4
12 23.06 С 1 50 км 3/0
[Ac trans]
+21.7 +1.7 27 +21 +22 комфорт 1009.0 993.1 +25.8
15 23.06 штиль 0 50 км 1/0
[Ac trans]
+12.7 +4.9 59 +12 +12 1009.2 992.8
18 23.06 штиль 0 50 км 1/0
[Ci fib]
+8.9 +5.6 80 +8 +8 1009.7 993.0
21 23.06 штиль 0 50 км 4/0
[Ac trans]
+9.5 +5.1 74 +9 +10 1009.6 993.0
00 24.06 штиль 0 50 км 8/3 1000 м
[Sc Ac trans]
+17.0 +9.1 60 +17 +21 1008.6 992.5 +8.4
03 24.06 З 4
{10}
50 км 10/5 960 м
[Cb cap Ac trans]
+17.0 +8.7 58 +17 +18 1008.2 992.1
06 24.06 З 2 50 км в посл. час дождь {ливн. осадки} 10/6 500 м
[Frnb As op]
+14.2 +13.1 93 +14 +15 1008.7 992.4
09 24.06 ЮЗ 1 50 км {ливн. осадки} 9/6 500 м
[Cb cap Ac trans]
+16.4 +13.2 81 +17 +19 1008.3 992.2
12 24.06 З 1 50 км {ливн. осадки} 10/6 1350 м
[Sc Ac trans]
+17.4 +13.3 77 +18 +19 1008.3 992.3 +19.0 0.1
15 24.06 Ю 1 50 км 10/4 600 м
[Cb cap Ac trans]
+15.6 +13.8 89 +16 +16 1008.2 992.0
18 24.06 штиль 0 10 км местами туман поземный 8/0
[Ac trans]
+13.0 +12.6 97 +12 +12 1008.0 991.7
21 24.06 штиль 0 50 км 10/0
[Ac trans]
+13.6 +13.2 97 +13 +14 1008.4 998.1
00 25.06 штиль 0 50 км 9/6 330 м
[St Ac trans]
+16.0 +14.2 89 +16 +18 1008.5 992.4 +12.4
03 25.06 Ю 2 50 км 10/6 600 м
[Cu med, cong Ci fib]
+22.0 +15.1 65 +26 +30 душно 1007.6 991.8
06 25.06 Ю 3 50 км 10/6 930 м
[Cb cap Ci fib]
+25.0 +14.5 52 +28 +31 жарко 1006.1 990.5
09 25.06 ЮЗ 2
{13}
10 км гроза, ливневой дождь 10/10 720 м
[Cb cap]
+14.7 +14.3 97 +14 +14 1008.2 992.0
12 25.06 штиль 0 50 км {гроза, ливн. осадки} 10/4 600 м
[Cb cap Ac trans Ci fib]
+15.9 +15.4 97 +16 +16 1008.5 992.4 +26.1 36
15 25.06 штиль 0 50 км 10/0
[Ac trans Ci fib]
+14.5 +14.1 97 +14 +14 1009.4 993.2
18 25.06 штиль 0 50 км 10/3 1000 м
[Cb cap Ac trans Ci fib]
+13.6 +13.2 97 +13 +13 1009.7 993.4
21 25.06 штиль 0 1000 м дымка 10/0
[Ac trans Ci fib]
+13.5 +13.3 99 +13 +14 1009.8 993.5
00 26.06 СЗ 1 50 км {туман} 8/8 300 м
[St]
+15.7 +14.8 94 +16 +18 1009.9 993.7 +13.3
03 26.06 З 1 50 км 6/3 1000 м
[Cu hum Ci fib]
+21.9 +17.7 77 +26 +36 душно 1009.1 993.3
06 26.06 ЮВ 2 50 км гроза без осадков {ливн. осадки} 10/5 600 м
[Cb cap Ci fib]
+22.4 +17.4 73 +27 +32 душно 1008.4 992.6

 

Местоположение метеостанции Сунтар (Якутия, Россия): широта 62.17 долгота 117.60 высота над уровнем моря 138 м.

В архиве по умолчанию представлена погода в Сунтаре за последнюю неделю. Архивные данные за месяц целиком и за предыдущие месяцы, начиная с января 2011 года, Вы можете получить, выбрав интересующий диапазон дат из раскрывающегося списка и нажав кнопку "Ввод!".


*Определитесь, кто Вы:
робот инопланетянин человек

Внимание! Время в таблицах - всемирное. Для получения местного времени необходимо прибавить поправку, которая равна 9 ч.

Смотрите также архив погоды в соседних городах и на ближайших метеорологических станциях:

Погода в Крестяхе (Якутия, Россия) (79 км)
Погода в Нюрбе (Якутия, Россия) (129 км)
Погода в Килиере (Якутия, Россия) (163 км)
Погода в Дорожном (Якутия, Россия) (169 км)
Погода в Верхневилюйске (Якутия, Россия) (194 км)
Погода в Мирном (Якутия, Россия) (200 км)
Погода в Ленске (Якутия, Россия) (219 км)
Погода в Чумпуруке (Якутия, Россия) (232 км)
Погода в Олекминске (Якутия, Россия) (247 км)
Погода в Маче (Якутия, Россия) (249 км)

Пояснения к столбцам:

Ветер - указаны скорость ветра в м/с - средняя за 10 мин, порывы в срок и между сроками (в фигурных скобках) и направление, откуда дует ветер: С - северный, СВ - северо-восточный, В - восточный, ЮВ - юго-восточный, Ю - южный, ЮЗ - юго-западный, З - западный, СЗ - северо-западный.
Видимость - горизонтальная дальность видимости в метрах или километрах. При видимости от 1 до 10 км при отсутствии осадков обычно наблюдается дымка, при ухудшении видимости до 1 км и менее - туман. В сухую погоду видимость может ухудшаться дымом, пылью или мглою.
Явления - указаны атмосферные явления, наблюдавшиеся в срок или в последний час перед сроком; фигурными скобками обозначены явления, наблюдавшиеся между сроками (за 1-3 часа до срока); квадратными скобками обозначены град или гололедные отложения с указанием их диаметра в мм.
Облачность - указаны через наклонную черту общая и нижняя облачность в баллах и высота нижней границы облаков в метрах; квадратными скобками обозначены формы облаков: Ci - перистые, Cs - перисто-слоистые, Cc - перисто-кучевые, Ac - высококучевые, As - высокослоистые, Sc - слоисто-кучевые, Ns - слоисто-дождевые, Cu - кучевые, Cb - кучево-дождевые. Подробнее классификацию облаков см. в Атласе облаков (PDF).
T - Температура воздуха - температура, измеренная на высоте 2 м над землей.
Td - Температура точки росы - температура, при понижении до которой содержащийся в воздухе водяной пар достигнет насыщения.
f - Относительная влажность воздуха - влажноcть воздуха, измеренная на высоте 2 м над землей.
Te - Эффективная температура - температура, которую ощущает одетый по сезону человек в тени. Характеристика душности погоды. При расчете учитывается влияние влажности воздуха и скорости ветра на теплоощущения человека.
Tes - Эффективная температура на солнце - температура, которую ощущает человек, с поправкой на солнечный нагрев. Характеристика знойности погоды. Зависит от высоты солнца над горизонтом, облачности и скорости ветра. Ночью, в пасмурную погоду, а также при ветре 12 м/с и более поправка равна нулю.
P - Атмосферное давление - приведенное к уровню моря атмосферное давление.
Po - Атмосферное давление - измеренное на уровне метеостанции атмосферное давление.
Tmin - Минимальная температура - минимум температуры воздуха на высоте 2 м над землей.
Tmax - Максимальная температура - максимум температуры воздуха на высоте 2 м над землей.
R - Количество осадков - Количество выпавших осадков за период времени, мм. При наведении курсора мыши на число - период времени, за который выпало указанное количество осадков.
R24 - Количество осадков - Количество выпавших осадков за 24 часа, мм.
S - Снежный покров - Высота снежного покрова, см. При наведении курсора мыши на число - состояние снежного покрова и степень покрытия местности в баллах.